Regional Weather Roundup
Issued by NWS Midland/Odessa, TX

Home | Current Version | Previous Version | Text Only | Print | Product List | Glossary On
Versions: 1 2 3 4 5 6 7 8 9 10 11 12 13 14 15 16 17 18 19 20 21 22 23 24 25 26 27 28 29 30 31 32 33 34 35 36 37 38 39 40 41 42 43 44 45 46 47 48 49 50
000
ASUS44 KMAF 110810
RWRMAF
MIDLAND AREA WEATHER ROUNDUP
NATIONAL WEATHER SERVICE MIDLAND TX
200 AM CST MON DEC 11 2017

...IN SOUTHWEST TEXAS AND SOUTHEAST NEW MEXICO...

CITY           SKY/WX    TMP DP  RH WIND       PRES   REMARKS
ALPINE         CLOUDY    43  24  47 SW7       30.48F WCI  39
ANDREWS        FAIR      43  23  44 W8        30.38F WCI  38
ARTESIA        CLOUDY    28  10  47 W6        30.38F WCI  22
BIG SPRING     CLOUDY    34  27  76 SE5       30.39F WCI  29
CARLSBAD       CLOUDY    31  25  78 N5        30.38S WCI  26
DRYDEN           N/A     42  30  62 W8        30.40F WCI  37
FORT STOCKTON  CLOUDY    42  28  57 SW13      30.40F WCI  35
GUAD PASS      CLOUDY    39  22  50 W17       30.44F WCI  30
HOBBS          CLOUDY    32  19  59 W7        30.37F WCI  26
LAMESA         FAIR      36  21  55 W8        30.37S WCI  29
MARFA          CLOUDY    30  27  88 CALM        N/A
MIDLAND AIRPK  CLOUDY    37  27  68 W6        30.39S WCI  32
MIDLAND INTL   CLOUDY    35  26  69 W7        30.38F WCI  29
ODESSA           N/A     37  25  61 W6        30.39S WCI  32
PECOS          CLOUDY    34  31  88 SW3       30.41S
PRESIDIO       FAIR      44  35  70 N6        30.45F
SEMINOLE       CLOUDY    36  24  61 W9        30.38S WCI  29
SNYDER         CLOUDY    42  20  41 SW7       30.35F WCI  37
WINK           CLOUDY    28  26  92 NW6       30.38F WCI  22
$$
...OTHER STATIONS IN TEXAS...

CITY           SKY/WX    TMP DP  RH WIND       PRES   REMARKS
ABILENE        PTCLDY    42  18  37 S3        30.33F
AMARILLO       CLOUDY    35  14  42 SW7       30.32S WCI  29
AUSTIN         CLEAR     32  30  92 CALM      30.33F
BROWNSVILLE    CLEAR     43  42  97 CALM      30.39S
CORPUS CHRISTI PTCLDY    42  40  92 W7        30.38S WCI  38
DALLAS FTW     CLEAR     43  24  47 S3        30.26S
DEL RIO        CLOUDY    38  36  92 N3        30.40S
EL PASO        MOCLDY    39  30  70 E3        30.43F
HOUSTON INT    PTCLDY    43  37  79 SW8       30.34S WCI  38
LUBBOCK        CLOUDY    30   7  37 NW9       30.34F WCI  22
SAN ANGELO     CLEAR     34  25  69 SW6       30.37S WCI  29
SAN ANTONIO    PTCLDY    37  32  82 NW5       30.36F WCI  33
WACO           CLEAR     35  29  78 SW6       30.30F WCI  30
WICHITA FALLS  CLEAR     37  16  42 W7        30.16F WCI  32
$$
...OTHER LOCATIONS IN NEW MEXICO...

CITY           SKY/WX    TMP DP  RH WIND       PRES   REMARKS
ALAMOGORDO     CLEAR     30   9  40 CALM      30.45S
ALBUQUERQUE    CLOUDY    30   1  29 CALM      30.47F
CANNON AFB     CLOUDY    40  13  32 W12       30.36F WCI  33
CLOVIS         CLOUDY    31  14  49 W9        30.36F WCI  23
HOLLOMAN AFB   CLOUDY    26   7  44 N5        30.47S WCI  20
ROSWELL        CLOUDY    32  11  41 N6        30.37F WCI  26
RUIDOSO        CLOUDY    37  -4  17 W3        30.47F
SANTA FE       CLOUDY    23   2  40 N9        30.47R WCI  13
TRUTH OR CONSE PTCLDY    35   2  24 N6        30.45F WCI  30
TUCUMCARI      CLOUDY    33   7  33 W9        30.32R WCI  25
$$



USA.gov is the U.S. government's official web portal to all federal, state and local government web resources and services.